EW7358 Weather Reports


time (UTC)temp
C
wind
direction
speed
KPH
gust
KPH
rain 1hr
cm
rain 24hr
cm
rain mn
cm
humidity
%
barometer
mb
20260505124827 13 332 11.3 27.4 0.00 0.00 0.00 40 1006.5
20260505123103 13 333 12.9 29.0 0.00 0.00 0.00 39 1006.6
20260505121646 13 292 12.9 29.0 0.00 0.00 0.00 39 1006.5
20260505120033 14 261 8.0 27.4 0.00 0.00 0.00 39 1006.1
20260505114134 14 319 11.3 27.4 0.00 0.00 0.00 38 1006.4
20260505111815 14 256 8.0 20.9 0.00 0.00 0.00 38 1006.1
20260505111104 14 327 9.7 20.9 0.00 0.00 0.00 38 1006.0
20260505101130 15 302 9.7 25.7 0.00 0.00 0.00 36 1005.4
20260505095250 15 16 11.3 25.7 0.00 0.00 0.00 36 1005.4
20260505093259 15 293 11.3 24.1 0.00 0.00 0.00 36 1005.4
20260505090237 15 281 9.7 22.5 0.00 0.00 0.00 38 1005.3
20260505084502 15 325 9.7 29.0 0.00 0.00 0.00 37 1005.2
20260505082845 16 303 9.7 29.0 0.00 0.00 0.00 36 1005.0
20260505080416 16 329 11.3 30.6 0.00 0.00 0.00 36 1004.8
20260505074156 16 325 12.9 30.6 0.00 0.00 0.00 34 1004.6
20260505071854 16 360 11.3 29.0 0.00 0.00 0.00 33 1004.5
20260505065859 17 341 9.7 29.0 0.00 0.00 0.00 33 1004.2
20260505063539 17 354 6.4 16.1 0.00 0.00 0.00 34 1004.2
20260505061801 17 10 8.0 17.7 0.00 0.00 0.00 33 1003.9
20260505061051 17 128 4.8 17.7 0.00 0.00 0.00 32 1003.9
20260505060351 17 293 8.0 17.7 0.00 0.00 0.00 32 1003.9
20260505055655 18 274 8.0 24.1 0.00 0.00 0.00 32 1003.8
20260505054820 18 300 6.4 25.7 0.00 0.00 0.00 30 1003.6
20260505054014 18 351 9.7 25.7 0.00 0.00 0.00 29 1003.3
20260505053521 19 335 4.8 29.0 0.00 0.00 0.00 29 1003.2
20260505053138 20 352 11.3 29.0 0.00 0.00 0.00 28 1003.2
20260505052327 20 100 12.9 35.4 0.00 0.00 0.00 28 1003.0
20260505051719 20 3 11.3 35.4 0.00 0.00 0.00 28 1002.9
20260505051237 21 301 12.9 24.1 0.00 0.00 0.00 28 1002.8
20260505051004 21 320 9.7 24.1 0.00 0.00 0.00 28 1002.7
20260505050431 21 330 8.0 20.9 0.00 0.00 0.00 28 1002.6
20260505041730 22 243 9.7 25.7 0.00 0.00 0.00 26 1002.3
20260505040811 23 335 8.0 25.7 0.00 0.00 0.00 27 1002.2
20260505035848 23 325 9.7 25.7 0.00 0.00 0.00 28 1002.2
20260505035037 23 301 11.3 24.1 0.00 0.00 0.00 27 1002.1
20260505034226 23 32 14.5 24.1 0.00 0.00 0.00 26 1002.0
20260505033303 23 275 11.3 24.1 0.00 0.00 0.00 26 1001.9
20260505032603 23 294 8.0 24.1 0.00 0.00 0.00 26 1001.9
20260505031902 23 298 12.9 22.5 0.00 0.00 0.00 26 1001.9
20260505031051 24 360 11.3 20.9 0.00 0.00 0.00 26 1001.7
20260505030241 24 302 9.7 19.3 0.00 0.00 0.00 26 1001.7
20260505025320 24 347 8.0 17.7 0.00 0.00 0.00 25 1001.6
20260505024251 24 334 6.4 19.3 0.00 0.00 0.00 26 1001.6
20260505023441 24 14 6.4 30.6 0.00 0.00 0.00 26 1001.5
20260505022847 24 328 11.3 30.6 0.00 0.00 0.00 25 1001.4
20260505022254 25 269 8.0 24.1 0.00 0.00 0.00 26 1001.3
20260505021435 25 319 12.9 24.1 0.00 0.00 0.00 27 1001.1
20260505020630 25 321 9.7 24.1 0.00 0.00 0.00 26 1001.0
20260505015707 25 297 8.0 27.4 0.00 0.00 0.00 27 1001.0
20260505014859 25 288 11.3 25.7 0.00 0.00 0.00 27 1000.9
20260505013932 26 26 4.8 24.1 0.00 0.00 0.00 31 1000.7
20260505012755 26 36 8.0 25.7 0.00 0.00 0.00 28 1000.7
20260505012418 26 354 8.0 25.7 0.00 0.00 0.00 29 1000.6
20260505011943 26 348 9.7 20.9 0.00 0.00 0.00 29 1000.5
20260505011127 26 326 9.7 24.1 0.00 0.00 0.00 30 1000.4
20260505010757 26 318 9.7 24.1 0.00 0.00 0.00 31 1000.3
20260505010203 26 289 14.5 22.5 0.00 0.00 0.00 29 1000.3
20260505005022 26 295 12.9 25.7 0.00 0.00 0.00 29 1000.3
20260505004433 26 294 11.3 25.7 0.00 0.00 0.00 29 1000.2
20260505003619 26 298 8.0 24.1 0.00 0.00 0.00 29 1000.2
20260505002442 27 300 11.3 25.7 0.00 0.00 0.00 28 1000.2
20260505001414 27 325 11.3 30.6 0.00 0.00 0.00 30 1000.1
20260505000233 27 278 16.1 30.6 0.00 0.00 0.00 28 1000.1
20260504235305 27 320 11.3 30.6 0.00 0.00 0.00 28 1000.1
20260504234717 27 309 16.1 30.6 0.00 0.00 0.00 27 1000.0
20260504234127 27 302 11.3 29.0 0.00 0.00 0.00 26 1000.0
20260504233425 27 331 14.5 29.0 0.00 0.00 0.00 25 1000.1
20260504232721 27 290 9.7 22.5 0.00 0.00 0.00 26 1000.1
20260504232308 27 259 8.0 20.9 0.00 0.00 0.00 25 1000.1
20260504231430 27 315 14.5 20.9 0.00 0.00 0.00 24 1000.0
20260504230512 27 289 8.0 29.0 0.00 0.00 0.00 26 1000.0
20260504230043 27 280 11.3 29.0 0.00 0.00 0.00 24 1000.1
20260504224958 26 265 11.3 30.6 0.00 0.00 0.00 25 1000.1
20260504224538 26 290 12.9 27.4 0.00 0.00 0.00 23 1000.2
20260504223705 26 267 9.7 27.4 0.00 0.00 0.00 26 1000.2
20260504222857 27 280 14.5 27.4 0.00 0.00 0.00 24 1000.2
20260504222519 27 326 6.4 32.2 0.00 0.00 0.00 26 1000.2
20260504221932 27 305 19.3 32.2 0.00 0.00 0.00 25 1000.3
20260504221228 27 238 11.3 27.4 0.00 0.00 0.00 26 1000.2
20260504220422 27 244 11.3 30.6 0.00 0.00 0.00 27 1000.3
20260504215828 26 316 11.3 33.8 0.00 0.00 0.00 27 1000.3
20260504215019 26 282 19.3 33.8 0.00 0.00 0.00 27 1000.3
20260504214208 26 300 14.5 33.8 0.00 0.00 0.00 26 1000.3
20260504213355 26 290 16.1 33.8 0.00 0.00 0.00 27 1000.3
20260504212435 26 294 11.3 27.4 0.00 0.00 0.00 29 1000.3
20260504210445 26 261 14.5 33.8 0.00 0.00 0.00 29 1000.5
20260504205634 26 304 11.3 33.8 0.00 0.00 0.00 29 1000.4
20260504204713 26 258 11.3 30.6 0.00 0.00 0.00 29 1000.5
20260504204010 26 301 12.9 27.4 0.00 0.00 0.00 31 1000.5
20260504202726 26 234 14.5 33.8 0.00 0.00 0.00 32 1000.6
20260504201801 26 282 12.9 33.8 0.00 0.00 0.00 32 1000.5
20260504200623 26 292 14.5 30.6 0.00 0.00 0.00 28 1000.5
20260504195809 27 265 9.7 27.4 0.00 0.00 0.00 30 1000.5
20260504194631 27 276 14.5 25.7 0.00 0.00 0.00 28 1000.4
20260504193710 26 302 12.9 40.2 0.00 0.00 0.00 29 1000.5
20260504192748 26 228 12.9 40.2 0.00 0.00 0.00 29 1000.5
20260504191939 26 269 16.1 30.6 0.00 0.00 0.00 28 1000.3
20260504191343 26 249 16.1 32.2 0.00 0.00 0.00 30 1000.5
20260504190751 26 262 11.3 32.2 0.00 0.00 0.00 31 1000.5
20260504190423 25 277 9.7 30.6 0.00 0.00 0.00 30 1000.4
20260504185614 25 248 11.3 35.4 0.00 0.00 0.00 30 1000.5
20260504184913 26 296 14.5 35.4 0.00 0.00 0.00 30 1000.5
20260504184320 26 294 9.7 17.7 0.00 0.00 0.00 31 1000.5
20260504183358 26 270 8.0 14.5 0.00 0.00 0.00 35 1000.4
20260504182658 26 278 4.8 17.7 0.00 0.00 0.00 36 1000.5
20260504181408 25 214 3.2 25.7 0.00 0.00 0.00 38 1000.6
20260504180708 25 251 11.3 25.7 0.00 0.00 0.00 35 1000.7
20260504175751 25 242 9.7 20.9 0.00 0.00 0.00 34 1000.8
20260504175049 25 199 8.0 14.5 0.00 0.00 0.00 37 1000.8
20260504173911 25 182 4.8 14.5 0.00 0.00 0.00 40 1000.9
20260504173316 25 215 6.4 19.3 0.00 0.00 0.00 41 1001.0
20260504172833 25 165 4.8 19.3 0.00 0.00 0.00 40 1001.0
20260504172245 25 205 6.4 16.1 0.00 0.00 0.00 39 1001.1
20260504171653 25 228 6.4 14.5 0.00 0.00 0.00 41 1001.0
20260504170954 24 225 6.4 14.5 0.00 0.00 0.00 42 1001.0
20260504170625 24 242 3.2 11.3 0.00 0.00 0.00 42 1001.0
20260504150810 20 250 3.2 9.7 0.00 0.00 0.00 50 1001.6